Miscellaneous Local Product
Issued by NWS Hastings, NE

Home | Current Version | Previous Version | Text Only | Print | Product List | Glossary Off
Versions: 1 2 3 4 5 6 7 8 9 10 11 12 13 14 15 16 17 18 19 20 21 22 23 24 25 26 27 28 29 30 31 32 33 34 35 36 37 38 39 40 41 42 43 44 45 46 47 48 49 50

000
AXUS43 KGID 210102
MISGRI

GID CWA HOURLY WEATHER ROUNDUP
NATIONAL WEATHER SERVICE HASTINGS NE
800 PM CDT MON OCT 20 2014

NOTE: "FAIR" INDICATES FEW OR NO CLOUDS BELOW 12,000 FEET WITH NO
SIGNIFICANT WEATHER AND/OR OBSTRUCTIONS TO VISIBILITY.

...SOUTH CENTRAL NEBRASKA...

CITY           SKY/WX    TMP DP  RH WIND       PRES   REMARKS
GRAND ISLAND   CLEAR     55  42  61 SE5       30.07R
HASTINGS       CLEAR     57  41  55 CALM      30.06S
KEARNEY        CLEAR     57  41  54 SE6       30.07S
ORD            CLEAR     57  42  57 S3        30.04R
YORK           CLEAR     59  39  47 E5        30.06S
AURORA         CLEAR     54  37  52 CALM      30.06R
LEXINGTON      CLEAR     61  42  49 SE7       30.06S
HOLDREGE       CLEAR     58  40  52 CALM      30.07R HAZE
HEBRON         CLEAR     56  41  56 CALM      30.06R

...NEBRASKA PANHANDLE...

CITY           SKY/WX    TMP DP  RH WIND       PRES   REMARKS
CHADRON        CLEAR     65  42  43 S13       29.92S
ALLIANCE       CLEAR     54  38  54 SE12      30.00S
SCOTTSBLUFF    CLEAR     61  40  45 SE9       29.98S
SIDNEY         CLEAR     58  37  45 S12       30.05S

...WESTERN AND NORTH CENTRAL NEBRASKA...

CITY           SKY/WX    TMP DP  RH WIND       PRES   REMARKS
VALENTINE      CLEAR     62  39  42 S7        29.99S
AINSWORTH      CLEAR     60  40  48 S8        30.02S
ONEILL         CLEAR     61  43  51 SE5       30.04S
BROKEN BOW     CLEAR     53  41  63 CALM      30.05S
IMPERIAL       CLEAR     62  37  39 S9        30.06S
NORTH PLATTE   CLEAR     57  41  55 SE3       30.05R
MCCOOK         CLEAR     64  40  41 S5        30.06S

...EASTERN NEBRASKA...

CITY           SKY/WX    TMP DP  RH WIND       PRES   REMARKS
NORFOLK        CLEAR     54  37  52 SE6       30.04S
SO SIOUX CITY  CLEAR     50  40  68 CALM      30.04S
TEKAMAH        CLEAR     51  40  65 CALM      30.04S
COLUMBUS       CLEAR     52  34  50 CALM      30.06S
ALBION         CLEAR     53  39  58 CALM      30.06R
OMAHA EPPLEY   CLEAR     53  46  77 CALM      30.05R
OFFUTT AFB     CLEAR     49  48  95 NW1       30.04S
MILLARD        CLEAR     55  46  72 CALM      30.05R
LINCOLN        CLEAR     57  41  55 CALM      30.07R
NEBRASKA CITY  CLEAR     61  32  33 CALM      30.06R
BEATRICE       CLEAR     55  40  56 CALM      30.06R
FALLS CITY     CLEAR     62  34  35 N3        30.05R

...NORTHERN KANSAS...

CITY           SKY/WX    TMP DP  RH WIND       PRES   REMARKS
GOODLAND       CLEAR     58  39  49 S10       30.11R
HILL CITY      CLEAR     58  40  51 CALM      30.07S
NORTON         CLEAR     63  36  36 SE6       30.06R
PHILLIPSBURG   CLEAR     66  43  42 SE6       30.06S
BELOIT         CLEAR     55  46  71 CALM      30.05R
HAYS           CLEAR     63  45  51 E7        30.08R
RUSSELL        CLEAR     65  44  46 E8        30.06R
CONCORDIA      CLEAR     60  45  57 SE5       30.06R
SALINA         CLEAR     64  47  53 CALM      30.06R
TOPEKA         CLEAR     58  47  66 CALM      30.05R



USA.gov is the U.S. government's official web portal to all federal, state and local government web resources and services.